Location: Gazon
(48.1318°N, 1.2708°W)
Time: 02:21:13
(UTC+00:00)

Lacrosse 5 rocket - Pass Details

Date: 18 September 2020
Orbit: 460 x 636 km, 57.0° (Epoch: 29 October)

Event Time Altitude Azimuth Distance (km) Brightness Sun altitude
Rises 19:44:55 0° 273° (W) 2,758 6.3 -16.2°
Reaches altitude 10° 19:47:20 10° 284° (WNW) 1,894 5.4 -16.6°
Maximum altitude 19:51:10 30° 347° (NNW) 1,086 3.1 -17.2°
Enters shadow 19:55:09 10° 49° (NE) 1,979 3.9 -17.8°
